Feng Yun 3G

operational
NORAD ID: 56232 Int'l Des: 2023-055 Owner: NSMC Country: CN
LEOCIRCULAR

Feng Yun 3Gについて

説明を読み込み中...

リアルタイム位置

3D地球を読み込み中...

次回通過

高度履歴

Altitude vs Time

uPlot chart will show altitude changes over time

軌道要素

1 56232U 23055A 26063.16939726 .00043920 00000-0 66267-3 0 9991
2 56232 49.9932 167.5045 0010735 348.4695 11.6025 15.54204995163682
Epoch: Mar 4, 2026 • Age: 23 hours

現在のステータス

高度 399.7 km
速度 7.68 km/s
衛星直下点 -11.19°S, 13.55°E
打ち上げ日 Apr 16, 2023
運用期間 2.8 years
タイプ other

技術仕様

分類 Payload
質量 3850.00 kg
乾燥質量 3110.00 kg
総質量 3850.00 kg
長さ 5.20 m
直径 2.90 m
スパン 13.70 m
形状 Box + 2 Pan
製造者 SISE
バスタイプ SAST-3000
フェーズステータス In Orbit
所有者/国 NSMC/CN

大規模コンステレーション

Loading constellations...